TimeCST,TemperatureF,Dew PointF,Humidity,Sea Level PressureIn,VisibilityMPH,Wind Direction,Wind SpeedMPH,Gust SpeedMPH,PrecipitationIn,Events,Conditions,WindDirDegrees,DateUTC
12:50 AM,57.2,50.0,77,30.05,10.0,NW,11.5,-,N/A,,Mostly Cloudy,310,1999-01-14 06:50:00
1:50 AM,51.8,48.2,88,30.05,7.0,WNW,9.2,-,N/A,,Clear,300,1999-01-14 07:50:00
2:50 AM,50.0,46.4,87,30.08,7.0,WNW,11.5,-,N/A,,Clear,290,1999-01-14 08:50:00
3:50 AM,48.2,44.6,87,30.08,7.0,NW,11.5,-,N/A,,Clear,310,1999-01-14 09:50:00
4:50 AM,46.4,42.8,87,30.09,7.0,NW,9.2,-,N/A,,Clear,310,1999-01-14 10:50:00
5:50 AM,46.4,42.8,87,30.12,7.0,NW,9.2,-,N/A,,Overcast,310,1999-01-14 11:50:00
6:50 AM,46.4,44.6,93,30.14,5.0,NW,6.9,-,N/A,,Overcast,310,1999-01-14 12:50:00
7:50 AM,46.4,44.6,93,30.16,10.5,NW,9.2,-,N/A,,Overcast,320,1999-01-14 13:50:00
8:50 AM,48.2,46.4,93,30.18,3.0,North,11.5,-,N/A,,Overcast,350,1999-01-14 14:50:00
9:50 AM,48.2,46.4,93,30.20,4.0,NNW,5.8,-,N/A,,Overcast,330,1999-01-14 15:50:00
10:50 AM,48.2,46.4,93,30.21,4.0,NNW,9.2,-,N/A,,Overcast,330,1999-01-14 16:50:00
11:50 AM,48.2,44.6,87,30.19,3.0,North,18.4,-,N/A,,Overcast,360,1999-01-14 17:50:00
12:50 PM,48.2,42.8,82,30.16,5.0,NNW,11.5,-,N/A,,Overcast,330,1999-01-14 18:50:00
1:50 PM,48.2,42.8,82,30.15,5.0,North,11.5,-,N/A,,Overcast,350,1999-01-14 19:50:00
2:50 PM,46.4,42.8,87,30.14,7.0,North,9.2,-,N/A,,Overcast,10,1999-01-14 20:50:00
3:50 PM,46.4,41.0,81,30.15,7.0,North,10.4,-,N/A,,Overcast,10,1999-01-14 21:50:00
4:50 PM,46.4,39.2,76,30.18,5.0,North,12.7,-,N/A,,Overcast,360,1999-01-14 22:50:00
5:50 PM,44.6,39.2,81,30.19,7.0,North,11.5,-,N/A,,Overcast,350,1999-01-14 23:50:00
6:50 PM,44.6,39.2,81,30.21,7.0,North,12.7,-,N/A,,Overcast,350,1999-01-15 00:50:00
7:50 PM,42.8,37.4,81,30.23,10.0,North,11.5,-,N/A,,Overcast,350,1999-01-15 01:50:00
8:50 PM,42.8,37.4,81,30.24,10.0,North,11.5,-,N/A,,Overcast,360,1999-01-15 02:50:00
9:50 PM,41.0,35.6,81,30.24,7.0,North,9.2,-,N/A,,Overcast,350,1999-01-15 03:50:00
10:50 PM,39.2,35.6,87,30.24,7.0,North,9.2,-,N/A,,Scattered Clouds,360,1999-01-15 04:50:00
11:50 PM,37.4,33.8,87,30.23,7.0,North,6.9,-,N/A,,Partly Cloudy,360,1999-01-15 05:50:00